Volver al catálogo

JILIN-1 GAOFEN 07A 03 XING

ActivoCienciaSSO
NORAD 68692·PAYLOAD·🇨🇳 China
Este nombre de satélite aún no ha sido confirmado por fuentes oficiales.

Lanzado Apr 14, 2026 desde Jiuquan Satellite Launch Center

Loading…

Próximos Pases (próximas 24 horas)

TLE

ActualizadoSource: Space-Track

Época: Sep 14, 2026, 15:47 UTC

1 68692U 26080B   26257.65821447  .00003385  00000-0  21792-3 0  9999
2 68692  97.6528 332.9922 0018904 106.5546 253.7761 15.08909007 23150

Sigue JILIN-1 GAOFEN 07A 03 XING en tiempo real con AllMySat

Download on the App Store